COSMOS 1975

Last updated on Wed Jul 02 2025 00:02:14 GMT+0000 (Coordinated Universal Time)

1 19573U 88093A 25182.56806597 .00004587 00000+0 19214-3 0 9990 2 19573 82.5226 8.7158 0012363 343.0210 17.0611 15.23218784981116
UTC large
Height (km)
Speed (km/s)
/
Latitude / Longitude
Inclination (degrees)
Orbital Period (minutes)
Azimuth
Elevation
Range (km)
Doppler Factor

Next 0 passes for location: London (51.5072 / 0.1276)

Sorry there are no passes over London.